This demonstration page uses our WeatherBlox Daily Observations layout. Learn more.

Hourly Observations for June 6, 2020

Temp ( °F °C ) Dew Point ( °F °C ) Humidity (%) Winds ( mph kmh ) Pressure ( in mb ) Visibility ( mi km ) Precip ( " mm )
12:15 am 00:15 Mostly Cloudy 63 17 63 17 100 100 Calm 29.89 1012 4 6.43736 0 0
12:35 am 00:35 Mostly Cloudy 63 17 63 17 100 100 Calm 29.89 1012 7 11.26538 0 0
12:55 am 00:55 Partly Cloudy 63 17 63 17 100 100 Calm 29.89 1012 7 11.26538 0 0
1:15 am 01:15 Mostly Cloudy 63 17 63 17 100 100 Calm 29.88 1012 7 11.26538 0 0
1:35 am 01:35 Cloudy 63 17 63 17 100 100 WSW 3 6 29.88 1012 3 4.82802 0 0
1:55 am 01:55 Cloudy 63 17 63 17 100 100 W 3 6 29.88 1012 2 3.21868 0 0
2:15 am 02:15 Cloudy 63 17 63 17 100 100 Calm 29.88 1012 0.75 1.207005 0 0
2:35 am 02:35 Cloudy 63 17 63 17 100 100 WSW 3 6 29.88 1012 0.5 0.80467 0 0
2:55 am 02:55 Cloudy 63 17 63 17 100 100 Calm 29.87 1011 0.5 0.80467 0 0
3:15 am 03:15 Cloudy 61 16 61 16 100 100 WSW 5 7 29.87 1011 0.75 1.207005 0 0
3:35 am 03:35 Cloudy 61 16 61 16 100 100 S 3 6 29.88 1012 1 1.60934 0 0
3:55 am 03:55 Cloudy 61 16 61 16 100 100 SW 5 7 29.88 1012 0.75 1.207005 0 0
4:15 am 04:15 Cloudy 61 16 61 16 100 100 SW 5 7 29.87 1011 0.75 1.207005 0 0
4:35 am 04:35 Cloudy 61 16 61 16 100 100 Calm 29.87 1011 0.5 0.80467 0 0
4:55 am 04:55 Cloudy 61 16 61 16 100 100 Calm 29.88 1012 0.75 1.207005 0 0
5:15 am 05:15 Mostly Cloudy 61 16 61 16 100 100 Calm 29.88 1012 2.5 4.02335 0 0
5:35 am 05:35 Cloudy 59 15 59 15 100 100 Calm 29.88 1012 0.5 0.80467 0 0
5:55 am 05:55 Mostly Cloudy 59 15 59 15 100 100 Calm 29.88 1012 2 3.21868 0 0
6:15 am 06:15 Partly Cloudy 61 16 61 16 100 100 Calm 29.88 1012 1.5 2.41401 0 0
6:35 am 06:35 Sunny 59 15 59 15 100 100 W 3 6 29.88 1012 10 16.0934 0 0
6:55 am 06:55 Sunny 61 16 61 16 100 100 WNW 3 6 29.89 1012 10 16.0934 0 0
7:15 am 07:15 Sunny 63 17 63 17 100 100 Calm 29.89 1012 10 16.0934 0 0
7:35 am 07:35 Sunny 63 17 63 17 100 100 Calm 29.89 1012 10 16.0934 0 0
7:55 am 07:55 Sunny 64 18 64 18 100 100 WNW 5 7 29.89 1012 10 16.0934 0 0
8:15 am 08:15 Sunny 66 19 64 18 94 94 WNW 6 9 29.89 1012 10 16.0934 0 0
8:35 am 08:35 Sunny 68 20 64 18 88 88 NW 5 7 29.89 1012 10 16.0934 0 0
8:55 am 08:55 Sunny 70 21 64 18 83 83 WNW 7 11 29.89 1012 10 16.0934 0 0
9:15 am 09:15 Sunny 70 21 66 19 88 88 WNW 8 13 29.9 1013 10 16.0934 0 0
9:35 am 09:35 Sunny 72 22 68 20 88 88 WNW 8 13 29.9 1012 10 16.0934 0 0
9:55 am 09:55 Sunny 73 23 66 19 78 78 WSW 3 6 29.9 1012 10 16.0934 0 0
10:15 am 10:15 Sunny 75 24 68 20 78 78 NW 9 15 29.89 1012 10 16.0934 0 0
10:35 am 10:35 Partly Cloudy 75 24 68 20 78 78 WNW 7 11 29.89 1012 10 16.0934 0 0
10:55 am 10:55 Partly Cloudy 77 25 68 20 74 74 NW 3 6 29.88 1012 10 16.0934 0 0
11:15 am 11:15 Sunny 79 26 70 21 74 74 WNW 8 13 29.88 1012 10 16.0934 0 0
11:35 am 11:35 Sunny 79 26 70 21 74 74 NW 13 20 29.88 1012 10 16.0934 0 0
11:55 am 11:55 Sunny 79 26 70 21 74 74 NW 15 24 29.87 1012 10 16.0934 0 0
12:15 pm 12:15 Sunny 79 26 70 21 74 74 NW 10 17 29.87 1012 10 16.0934 0 0
12:35 pm 12:35 Sunny 79 26 70 21 74 74 WNW 9 15 29.87 1012 10 16.0934 0 0
12:55 pm 12:55 Partly Cloudy 81 27 70 21 70 70 WSW 6 9 29.86 1011 10 16.0934 0 0
1:15 pm 13:15 Mostly Cloudy 82 28 70 21 66 66 NW 8 13 29.86 1011 10 16.0934 0 0
1:35 pm 13:35 Mostly Cloudy 82 28 70 21 66 66 WNW 10 17 29.86 1011 10 16.0934 0 0
1:55 pm 13:55 Partly Cloudy 84 29 70 21 62 62 WSW 12 19 29.84 1010 10 16.0934 0 0
2:15 pm 14:15 Partly Cloudy 86 30 70 21 59 59 WNW 12 19 29.84 1010 10 16.0934 0 0
2:35 pm 14:35 Sunny 86 30 68 20 55 55 WNW 10 17 29.83 1010 10 16.0934 0 0
2:55 pm 14:55 Partly Cloudy 86 30 68 20 55 55 W 8 13 29.83 1010 10 16.0934 0 0
3:15 pm 15:15 Partly Cloudy 88 31 68 20 52 52 WNW 14 22 29.83 1010 10 16.0934 0 0
3:35 pm 15:35 Sunny 88 31 64 18 46 46 NW 18 30 29.82 1010 10 16.0934 0 0
3:55 pm 15:55 Sunny 88 31 64 18 46 46 NW 15 24 29.82 1010 10 16.0934 0 0
4:15 pm 16:15 Sunny 88 31 64 18 46 46 WNW 15 24 29.81 1009 10 16.0934 0 0
4:35 pm 16:35 Partly Cloudy 86 30 64 18 49 49 NW 12 19 29.81 1009 10 16.0934 0 0
4:55 pm 16:55 Partly Cloudy 86 30 63 17 46 46 WNW 12 19 29.81 1009 10 16.0934 0 0
5:15 pm 17:15 Partly Cloudy 86 30 63 17 46 46 WNW 15 24 29.8 1009 10 16.0934 0 0
5:35 pm 17:35 Partly Cloudy 88 31 64 18 46 46 WNW 14 22 29.79 1009 10 16.0934 0 0
5:55 pm 17:55 Sunny 88 31 63 17 43 43 NW 16 26 29.8 1009 10 16.0934 0 0
6:15 pm 18:15 Sunny 88 31 59 15 38 38 NNW 14 22 29.8 1009 10 16.0934 0 0
6:35 pm 18:35 Sunny 86 30 59 15 40 40 NNW 12 19 29.8 1009 10 16.0934 0 0
6:55 pm 18:55 Sunny 84 29 61 16 45 45 NW 12 19 29.8 1009 10 16.0934 0 0
7:15 pm 19:15 Sunny 84 29 59 15 43 43 NW 12 19 29.81 1009 10 16.0934 0 0
7:35 pm 19:35 Sunny 82 28 59 15 45 45 NW 7 11 29.81 1009 10 16.0934 0 0
7:55 pm 19:55 Sunny 82 28 59 15 45 45 NW 8 13 29.81 1009 10 16.0934 0 0
8:15 pm 20:15 Sunny 81 27 59 15 48 48 NW 6 9 29.8 1009 10 16.0934 0 0
8:35 pm 20:35 Clear 79 26 59 15 51 51 NW 5 7 29.81 1010 10 16.0934 0 0
8:55 pm 20:55 Clear 79 26 59 15 51 51 NNW 8 13 29.82 1010 10 16.0934 0 0
9:15 pm 21:15 Partly Cloudy 79 26 55 13 45 45 NNW 9 15 29.83 1010 10 16.0934 0 0
9:35 pm 21:35 Partly Cloudy 77 25 55 13 47 47 NNW 7 11 29.83 1010 10 16.0934 0 0
9:55 pm 21:55 Clear 75 24 54 12 47 47 NNW 7 11 29.84 1010 10 16.0934 0 0
10:15 pm 22:15 Clear 75 24 54 12 47 47 NNW 7 11 29.85 1011 10 16.0934 0 0
10:35 pm 22:35 Clear 73 23 54 12 50 50 NW 5 7 29.86 1011 10 16.0934 0 0
10:55 pm 22:55 Clear 73 23 54 12 50 50 NNW 3 6 29.85 1011 10 16.0934 0 0
11:15 pm 23:15 Clear 72 22 54 12 53 53 NNW 3 6 29.86 1011 10 16.0934 0 0
11:35 pm 23:35 Clear 72 22 54 12 53 53 N 6 9 29.87 1011 10 16.0934 0 0
11:55 pm 23:55 Clear 72 22 54 12 53 53 NNW 3 6 29.87 1011 10 16.0934 0 0

Powered by AerisWeather